Home   Weather   Cork   Past weeks

Flag for Ireland Past Weather in Cork, Ireland — Yesterday and Last 2 Weeks

Now
52 °F

Low clouds.


Feels Like: 50 °F
Forecast: N/A
Wind: 6 mph from Northwest

Location: Cork Airport

Current Time: Feb 19, 2017 at 11:34:27 pm

Latest Report: Feb 19, 2017 at 10:00 pm


Visibility: 19 mi

Pressure: 30.25 "Hg

Humidity: 97%

Dew Point: 51 °F

Location of CorkLocation

Past Weather in Cork — Graph

°F

Cork Temperature Yesterday

Maximum temperature yesterday: 54 °F (at 4:00 pm)
Minimum temperature yesterday: 41 °F (at 8:00 pm)
Average temperature yesterday: 48 °F

High & Low Weather Summary for the Past Weeks

 TemperatureHumidityPressure
High57 °F (Feb 19, 1:00 pm)99% (Feb 6, 2:00 pm)30.48 "Hg (Feb 6, 2:00 pm)
Low34 °F (Feb 5, 2:00 am)61% (Feb 11, 2:00 pm)29.32 "Hg (Feb 4, 10:00 pm)
Average43 °F89%30.10 "Hg
* Reported Feb 4 10:00 pm — Feb 19 10:00 pm, Cork, Weather by CustomWeather, © 2017

Note: Actual official high and low records may vary slightly from our data, if they occured in-between our weather recording intervals... More about our weather records

Advertising

Cork Weather History for the Previous 24 Hours

Scroll right to see more
 ConditionsComfort  
Time TempWeatherWind HumidityBarometerVisibility
10:00 pm
Sun, Feb 19
52 °FLow clouds.6 mph97%30.25 "Hg19 mi
9:00 pm52 °FOvercast.5 mph96%30.23 "Hg25 mi
8:00 pm53 °FLow clouds.5 mph96%30.23 "Hg16 mi
7:00 pm54 °FRain. Low clouds.7 mph93%30.24 "Hg7 mi
6:00 pm55 °FOvercast.5 mph90%30.22 "Hg25 mi
5:00 pm56 °FOvercast.3 mph89%30.22 "Hg31 mi
4:00 pm56 °FOvercast.5 mph89%30.22 "Hg31 mi
3:00 pm57 °FOvercast.5 mph88%30.21 "Hg31 mi
2:00 pm57 °FOvercast.8 mph88%30.21 "Hg31 mi
1:00 pm57 °FOvercast.6 mph88%30.22 "Hg28 mi
12:00 pm56 °FOvercast.8 mph90%30.22 "Hg28 mi
11:00 am52 °FOvercast.5 mph98%30.22 "Hg28 mi
10:00 am51 °FOvercast.3 mph99%30.22 "Hg25 mi
9:00 am49 °FLow clouds.2 mph98%30.21 "Hg22 mi
8:00 am49 °FFog.2 mph98%30.19 "Hg3 mi
7:00 am48 °FFog.3 mph99%30.17 "Hg1 mi
6:00 am48 °FFog.5 mph98%30.17 "Hg1 mi
5:00 am47 °FFog.5 mph98%30.17 "Hg1 mi
4:00 am47 °FFog.6 mph98%30.16 "Hg1 mi
3:00 am46 °FDrizzle. Low clouds.6 mph98%30.19 "Hg5 mi
2:00 am46 °FLow clouds.6 mph96%30.19 "Hg22 mi
1:00 am46 °FLow clouds.5 mph96%30.21 "Hg22 mi
12:00 am46 °FLow clouds.3 mph95%30.21 "Hg22 mi
11:00 pm
Sat, Feb 18
44 °FPassing clouds.3 mph94%30.20 "Hg22 mi
Weather by CustomWeather, © 2017

See weather overviewHow to use our weather pages